| time (UTC) | temp F | wind direction | speed MPH | gust MPH | rain 1hr in | rain 24hr in | rain mn in | humidity % | barometer mb |
| 20260906001557 | 90 | 254 | 0.0 | 0.0 | 0.00 | 0.00 | 0.00 | 42 | 1011.8 |
| 20260906000107 | 91 | 254 | 0.0 | 1.0 | 0.00 | 0.00 | 0.00 | 40 | 1011.7 |
| 20260905234601 | 92 | 254 | 0.0 | 0.0 | 0.00 | 0.00 | 0.00 | 40 | 1011.6 |
| 20260905233058 | 92 | 254 | 0.0 | 0.0 | 0.00 | 0.00 | 0.00 | 41 | 1011.5 |
| 20260905231556 | 93 | 254 | 0.0 | 0.0 | 0.00 | 0.00 | 0.00 | 37 | 1011.4 |
| 20260905230057 | 95 | 257 | 0.0 | 1.0 | 0.00 | 0.00 | 0.00 | 36 | 1011.4 |
| 20260905224605 | 94 | 257 | 0.0 | 0.0 | 0.00 | 0.00 | 0.00 | 35 | 1011.5 |
| 20260905223054 | 96 | 257 | 0.0 | 2.0 | 0.00 | 0.00 | 0.00 | 33 | 1011.3 |
| 20260905221554 | 97 | 257 | 0.0 | 3.0 | 0.00 | 0.00 | 0.00 | 34 | 1011.3 |
| 20260905220053 | 97 | 258 | 1.0 | 3.0 | 0.00 | 0.00 | 0.00 | 32 | 1011.7 |
| 20260905214549 | 97 | 257 | 0.0 | 4.0 | 0.00 | 0.00 | 0.00 | 30 | 1011.9 |
| 20260905213049 | 96 | 257 | 0.0 | 3.0 | 0.00 | 0.00 | 0.00 | 30 | 1012.0 |
| 20260905211549 | 97 | 257 | 0.0 | 2.0 | 0.00 | 0.00 | 0.00 | 31 | 1012.3 |
| 20260905210048 | 97 | 257 | 0.0 | 2.0 | 0.00 | 0.00 | 0.00 | 30 | 1012.7 |
| 20260905204545 | 96 | 255 | 0.0 | 2.0 | 0.00 | 0.00 | 0.00 | 35 | 1012.9 |
| 20260905203044 | 97 | 254 | 0.0 | 3.0 | 0.00 | 0.00 | 0.00 | 34 | 1012.9 |
| 20260905201546 | 96 | 252 | 1.0 | 4.0 | 0.00 | 0.00 | 0.00 | 35 | 1012.9 |
| 20260905200050 | 96 | 252 | 0.0 | 2.0 | 0.00 | 0.00 | 0.00 | 36 | 1013.2 |
| 20260905194540 | 96 | 252 | 0.0 | 4.0 | 0.00 | 0.00 | 0.00 | 32 | 1013.4 |
| 20260905193041 | 95 | 234 | 0.0 | 2.0 | 0.00 | 0.00 | 0.00 | 35 | 1013.4 |
| 20260905191539 | 95 | 233 | 1.0 | 4.0 | 0.00 | 0.00 | 0.00 | 36 | 1013.5 |
| 20260905190048 | 96 | 209 | 0.0 | 3.0 | 0.00 | 0.00 | 0.00 | 35 | 1013.9 |
| 20260905184551 | 95 | 207 | 0.0 | 2.0 | 0.00 | 0.00 | 0.00 | 35 | 1013.9 |
| 20260905183038 | 95 | 221 | 0.0 | 2.0 | 0.00 | 0.00 | 0.00 | 38 | 1014.0 |
| 20260905181534 | 95 | 216 | 0.0 | 2.0 | 0.00 | 0.00 | 0.00 | 42 | 1014.2 |
| 20260905180031 | 94 | 213 | 0.0 | 3.0 | 0.00 | 0.00 | 0.00 | 40 | 1014.4 |
| 20260905174529 | 93 | 210 | 1.0 | 3.0 | 0.00 | 0.00 | 0.00 | 39 | 1014.6 |
| 20260905173028 | 92 | 206 | 0.0 | 3.0 | 0.00 | 0.00 | 0.00 | 43 | 1014.8 |
| 20260905171524 | 92 | 208 | 0.0 | 2.0 | 0.00 | 0.00 | 0.00 | 44 | 1015.1 |
| 20260905170021 | 91 | 207 | 0.0 | 3.0 | 0.00 | 0.00 | 0.00 | 43 | 1015.2 |
| 20260905164526 | 91 | 202 | 0.0 | 2.0 | 0.00 | 0.00 | 0.00 | 46 | 1015.0 |
| 20260905163014 | 90 | 202 | 0.0 | 2.0 | 0.00 | 0.00 | 0.00 | 48 | 1015.0 |
| 20260905161514 | 89 | 201 | 0.0 | 2.0 | 0.00 | 0.00 | 0.00 | 49 | 1015.1 |
| 20260905160013 | 89 | 201 | 1.0 | 3.0 | 0.00 | 0.00 | 0.00 | 47 | 1015.0 |
| 20260905154507 | 88 | 201 | 0.0 | 2.0 | 0.00 | 0.00 | 0.00 | 49 | 1014.7 |
| 20260905153003 | 87 | 201 | 0.0 | 1.0 | 0.00 | 0.00 | 0.00 | 50 | 1014.6 |
| 20260905151503 | 86 | 201 | 0.0 | 3.0 | 0.00 | 0.00 | 0.00 | 53 | 1014.7 |
| 20260905150059 | 85 | 212 | 0.0 | 2.0 | 0.00 | 0.00 | 0.00 | 53 | 1014.6 |
| 20260905144555 | 83 | 212 | 0.0 | 1.0 | 0.00 | 0.00 | 0.00 | 56 | 1014.4 |
| 20260905143053 | 78 | 212 | 0.0 | 0.0 | 0.00 | 0.00 | 0.00 | 58 | 1014.3 |
| 20260905141555 | 77 | 212 | 0.0 | 0.0 | 0.00 | 0.00 | 0.00 | 59 | 1014.4 |
| 20260905134547 | 75 | 212 | 0.0 | 0.0 | 0.00 | 0.00 | 0.00 | 60 | 1014.3 |
| 20260905133046 | 75 | 212 | 0.0 | 1.0 | 0.00 | 0.00 | 0.00 | 61 | 1014.2 |
| 20260905131558 | 74 | 213 | 0.0 | 1.0 | 0.00 | 0.00 | 0.00 | 61 | 1014.1 |
| 20260905130049 | 74 | 213 | 0.0 | 0.0 | 0.00 | 0.00 | 0.00 | 61 | 1013.9 |
| 20260905124541 | 73 | 213 | 0.0 | 1.0 | 0.00 | 0.00 | 0.00 | 61 | 1013.8 |
| 20260905123040 | 72 | 213 | 0.0 | 0.0 | 0.00 | 0.00 | 0.00 | 61 | 1013.7 |
| 20260905121540 | 72 | 213 | 0.0 | 0.0 | 0.00 | 0.00 | 0.00 | 61 | 1013.7 |
| 20260905120042 | 72 | 213 | 0.0 | 0.0 | 0.00 | 0.00 | 0.00 | 61 | 1013.5 |
| 20260905114536 | 71 | 213 | 0.0 | 0.0 | 0.00 | 0.00 | 0.00 | 61 | 1013.1 |
| 20260905113036 | 71 | 213 | 0.0 | 0.0 | 0.00 | 0.00 | 0.00 | 61 | 1013.0 |
| 20260905111554 | 72 | 213 | 0.0 | 0.0 | 0.00 | 0.00 | 0.00 | 61 | 1013.0 |
| 20260905110135 | 72 | 213 | 0.0 | 0.0 | 0.00 | 0.00 | 0.00 | 61 | 1012.7 |
| 20260905104532 | 72 | 213 | 0.0 | 0.0 | 0.00 | 0.00 | 0.00 | 61 | 1012.8 |
| 20260905103031 | 72 | 213 | 0.0 | 0.0 | 0.00 | 0.00 | 0.00 | 62 | 1012.8 |
| 20260905101531 | 72 | 213 | 0.0 | 0.0 | 0.00 | 0.00 | 0.00 | 62 | 1012.6 |
| 20260905100031 | 72 | 213 | 0.0 | 0.0 | 0.00 | 0.00 | 0.00 | 62 | 1012.7 |
| 20260905094529 | 72 | 213 | 0.0 | 0.0 | 0.00 | 0.00 | 0.00 | 62 | 1012.8 |
| 20260905093028 | 73 | 213 | 0.0 | 0.0 | 0.00 | 0.00 | 0.00 | 62 | 1012.7 |
| 20260905091526 | 73 | 213 | 0.0 | 0.0 | 0.00 | 0.00 | 0.00 | 62 | 1012.9 |
| 20260905090025 | 73 | 213 | 0.0 | 0.0 | 0.00 | 0.00 | 0.00 | 62 | 1012.8 |
| 20260905084527 | 74 | 213 | 0.0 | 0.0 | 0.00 | 0.00 | 0.00 | 63 | 1012.7 |
| 20260905083022 | 74 | 213 | 0.0 | 0.0 | 0.00 | 0.00 | 0.00 | 63 | 1012.5 |
| 20260905081524 | 74 | 213 | 0.0 | 0.0 | 0.00 | 0.00 | 0.00 | 63 | 1012.6 |
| 20260905080020 | 74 | 213 | 0.0 | 0.0 | 0.00 | 0.00 | 0.00 | 63 | 1012.5 |
| 20260905074519 | 75 | 213 | 0.0 | 0.0 | 0.00 | 0.00 | 0.00 | 63 | 1012.7 |
| 20260905073022 | 75 | 213 | 0.0 | 0.0 | 0.00 | 0.00 | 0.00 | 63 | 1012.8 |
| 20260905071533 | 75 | 213 | 0.0 | 0.0 | 0.00 | 0.00 | 0.00 | 63 | 1012.8 |
| 20260905070014 | 75 | 213 | 0.0 | 0.0 | 0.00 | 0.00 | 0.00 | 63 | 1012.7 |
| 20260905064513 | 76 | 213 | 0.0 | 0.0 | 0.00 | 0.00 | 0.00 | 63 | 1013.0 |
| 20260905063012 | 76 | 213 | 0.0 | 0.0 | 0.00 | 0.00 | 0.00 | 62 | 1013.0 |
| 20260905061511 | 76 | 213 | 0.0 | 0.0 | 0.00 | 0.00 | 0.00 | 63 | 1012.9 |
| 20260905060016 | 77 | 213 | 0.0 | 1.0 | 0.00 | 0.00 | 0.00 | 63 | 1012.9 |
| 20260905054523 | 77 | 213 | 0.0 | 0.0 | 0.00 | 0.00 | 0.00 | 62 | 1012.7 |
| 20260905053004 | 78 | 213 | 0.0 | 0.0 | 0.00 | 0.00 | 0.00 | 62 | 1012.6 |
| 20260905051504 | 78 | 213 | 0.0 | 0.0 | 0.00 | 0.00 | 0.00 | 61 | 1012.7 |
| 20260905050001 | 78 | 213 | 0.0 | 0.0 | 0.00 | 0.00 | 0.00 | 61 | 1012.7 |
| 20260905044602 | 79 | 213 | 0.0 | 0.0 | 0.00 | 0.00 | 0.00 | 60 | 1012.7 |
| 20260905043100 | 79 | 213 | 0.0 | 0.0 | 0.00 | 0.00 | 0.00 | 60 | 1012.7 |
| 20260905041559 | 79 | 213 | 0.0 | 0.0 | 0.00 | 0.00 | 0.00 | 59 | 1012.7 |
| 20260905040103 | 79 | 213 | 0.0 | 0.0 | 0.00 | 0.00 | 0.00 | 58 | 1012.8 |
| 20260905034559 | 80 | 213 | 0.0 | 0.0 | 0.00 | 0.00 | 0.00 | 58 | 1012.6 |
| 20260905033103 | 80 | 213 | 0.0 | 0.0 | 0.00 | 0.00 | 0.00 | 58 | 1012.6 |
| 20260905031558 | 81 | 213 | 0.0 | 0.0 | 0.00 | 0.00 | 0.00 | 57 | 1012.5 |
| 20260905030100 | 81 | 213 | 0.0 | 0.0 | 0.00 | 0.00 | 0.00 | 57 | 1012.5 |
| 20260905024621 | 82 | 213 | 0.0 | 0.0 | 0.00 | 0.00 | 0.00 | 56 | 1012.4 |
| 20260905023110 | 82 | 213 | 0.0 | 0.0 | 0.00 | 0.00 | 0.00 | 56 | 1012.3 |
| 20260905021600 | 83 | 213 | 0.0 | 0.0 | 0.00 | 0.00 | 0.00 | 55 | 1012.2 |
| 20260905020106 | 83 | 213 | 0.0 | 0.0 | 0.00 | 0.00 | 0.00 | 53 | 1011.8 |
| 20260905014559 | 84 | 213 | 0.0 | 0.0 | 0.00 | 0.00 | 0.00 | 52 | 1011.6 |
| 20260905013055 | 85 | 213 | 0.0 | 0.0 | 0.00 | 0.00 | 0.00 | 50 | 1011.5 |
| 20260905011602 | 86 | 213 | 0.0 | 0.0 | 0.00 | 0.00 | 0.00 | 48 | 1011.3 |
| 20260905010054 | 88 | 213 | 0.0 | 1.0 | 0.00 | 0.00 | 0.00 | 46 | 1011.3 |
| 20260905004553 | 89 | 179 | 0.0 | 0.0 | 0.00 | 0.00 | 0.00 | 44 | 1011.3 |
| 20260905003053 | 90 | 180 | 0.0 | 1.0 | 0.00 | 0.00 | 0.00 | 42 | 1011.3 |